Погода в Каракше

Россия / Кировская область     57°02′00″N   47°55′36″E
темп.,
°C
ветер,
м/с
пор.,
м/с
влажн.,
%
обл.,
%
осадки,
мм/ч
давл.,
гПа
погр.,
м
3 марта, ср
ср300:00−4з379794 0.2 999230
03:00−3зсз499697 0.8 999395
06:00−5сз6119599 0.8 999560
09:00−5ссз7119299 1.4 1001680
12:00−5сз6988100 0.1 1003704
15:00−5зсз61087100 0.2 1004790
18:00−6зсз51091100 0.1 1004672
21:00−7з4990100 0.1 1004296
4 марта, чт
чт400:00−7зюз5109599 0.6 1000378
03:00−4зюз51195100 1.3 999513
06:00−4юз61296100 0.3 995579
09:00−2зюз71295100 1.2 993813
12:00−1юз61097100 1.5 990714
15:00−1зсз6127987 3.9 9901190
18:00−4з6139396 0.2 992587
21:00−6зсз5119195 0.4 996341
5 марта, пт
пт500:00−10сз369465 0.0 998126
03:00−13сз349579 0.0 100050
06:00−17ссз348918 0.0 100239
09:00−14сз36929 0.0 1003242
12:00−10сз46850 0.0 1004514
15:00−8зсз478722 0.0 1006734
18:00−11з339599 0.0 100725
21:00−12з349694 0.1 100947
6 марта, сб
сб600:00−14зюз349680 0.0 101087
03:00−14зюз349882 0.1 101152
06:00−15юз339885 0.1 101140
09:00−11зюз249491 0.2 1011225
12:00−8зсз2388100 0.2 1011456
15:00−8ссз3490100 0.4 1010454
18:00−14сз4694100 0.1 1010103
21:00−18сз349674 0.1 101133
7 марта, вс
вс700:00−20з33996 0.0 101020
03:00−20зюз3310047 0.0 101127
06:00−20юз3410099 0.0 100955
09:00−17ююз4797100 0.1 1008233
12:00−11ю71192100 0.0 1005508
15:00−9ююз91393100 0.5 10011029
18:00−9ю81493100 1.0 998849
21:00−8ю71394100 1.4 995646